Content
SEND FEEDBACK

Daily
Averages
Monthly
Summary
French Polynesia

PAPEETE, FRENCH POLYNESIA


Home > Oceania > French Polynesia
Elevation: 7 feet     Latitude: 17 33S     Longitude: 149 36W

WEATHER
 
SELECT A DAY
Number of Records: 208,679;   Date Range: 6/30/96 - 8/10/14
 
SHARE

PRINT THIS DATA

[ ← Previous Day ]
WEATHER ALMANAC - JULY 13, 2013
[ Next Day → ]
[ °C ]   °F
Weather ElementAverageHighLow
Temperature77 °F84.2 °F (12:00 pm)71.6 °F (4:00 am)
Dewpoint64.8 °F68 °F (12:30 am)60.8 °F (4:30 pm)
Humidity66.2 %88 % (4:00 am)44 % (2:00 pm)
Barometer29.97 in30.03 in (11:00 pm)29.92 in (3:00 am)
Wind Speed4.5 mph11.5 mph (2:00 pm)
Weather ElementAverage
Visibility7.6 mi
Wind DirectionESE (114.2 °)

Weather ElementTotal
Precipitation---
Cooling Degree Days12.9 (Base 65)
Growing Degree Days27.9 (Base 50)
Averaged from 53 records on July 13, 2013
WEATHER CONDITIONS BREAKOUT
WIND DIRECTION BREAKOUT
WEATHER BY HOUR - JULY 13, 2013
[ °C ]   °F
Local TimeTemperatureDewpointHumidityBarometerVisibilityWind DirectionWind SpeedGust SpeedPrecipitationEventsConditions
12:30 AM73.4 °F68.0 °F83 %29.95 in6.2 miENE (70°)3.5 mphPartly Cloudy
1:00 AM73.4 °F68.0 °F83 %29.95 in6.2 miVariable3.5 mphPartly Cloudy
1:30 AM73.4 °F66.2 °F78 %29.95 in6.2 miVariable3.5 mphPartly Cloudy
2:00 AM73.0 °F67.0 °F76 %29.96 in12.0 miESE (120°)6.7 mphScattered Clouds
2:30 AM73.4 °F68.0 °F83 %29.95 in6.2 miVariable2.3 mphScattered Clouds
3:00 AM73.4 °F68.0 °F83 %29.92 in6.2 miENE (70°)3.5 mphScattered Clouds
3:30 AM73.4 °F68.0 °F83 %29.92 in6.2 miEast (100°)4.6 mphPartly Cloudy
4:00 AM71.6 °F68.0 °F88 %29.92 in6.2 miESE (110°)3.5 mphMostly Cloudy
4:30 AM71.6 °F66.2 °F83 %29.95 in6.2 miVariable1.2 mphMostly Cloudy
5:00 AM72.0 °F67.0 °F79 %29.95 in34.0 miEast (90°)4.5 mphClear
5:00 AM71.6 °F66.2 °F83 %29.95 in6.2 miVariable2.3 mphScattered Clouds
5:30 AM71.6 °F66.2 °F83 %29.95 in6.2 miESE (110°)3.5 mphMostly Cloudy
6:00 AM71.6 °F66.2 °F83 %29.98 in6.2 miEast (100°)3.5 mphScattered Clouds
6:30 AM71.6 °F66.2 °F83 %29.98 in6.2 miEast (100°)3.5 mphScattered Clouds
7:00 AM71.6 °F66.2 °F83 %29.98 in6.2 miEast (80°)3.5 mphPartly Cloudy
7:30 AM73.4 °F68.0 °F83 %30.01 in6.2 miVariable1.2 mphPartly Cloudy
8:00 AM76.0 °F67.0 °F68 %30.01 in16.0 miSouth (190°)1.2 mphPartly Cloudy
8:00 AM75.2 °F68.0 °F78 %30.01 in6.2 miVariable1.2 mphPartly Cloudy
8:30 AM78.8 °F66.2 °F65 %30.01 in6.2 miNNE (20°)4.6 mphPartly Cloudy
9:00 AM78.8 °F64.4 °F61 %30.01 in6.2 miVariable1.2 mphPartly Cloudy
9:30 AM80.6 °F64.4 °F58 %30.01 in6.2 miVariable2.3 mphPartly Cloudy
10:00 AM82.4 °F64.4 °F54 %30.01 in6.2 miWest (260°)3.5 mphPartly Cloudy
10:30 AM82.4 °F64.4 °F54 %30.01 in6.2 miWest (280°)4.6 mphPartly Cloudy
11:00 AM82.0 °F64.0 °F45 %30.00 in16.0 miWNW (290°)6.7 mphScattered Clouds
11:00 AM82.4 °F64.4 °F54 %29.98 in6.2 miWNW (290°)3.5 mphPartly Cloudy
11:30 AM82.4 °F64.4 °F54 %29.98 in6.2 miWest (270°)4.6 mphPartly Cloudy
12:00 PM84.2 °F64.4 °F51 %29.98 in6.2 miWSW (250°)3.5 mphPartly Cloudy
12:30 PM84.2 °F62.6 °F48 %29.95 in6.2 miWSW (250°)6.9 mphPartly Cloudy
1:00 PM84.2 °F62.6 °F48 %29.95 in6.2 miWSW (240°)8.1 mphPartly Cloudy
1:30 PM84.2 °F62.6 °F48 %29.92 in6.2 miSW (230°)9.2 mphPartly Cloudy
2:00 PM82.0 °F64.0 °F44 %29.95 in16.0 miSW (230°)11.5 mphScattered Clouds
2:00 PM82.4 °F64.4 °F54 %29.95 in6.2 miSW (230°)11.5 mphPartly Cloudy
2:30 PM82.4 °F64.4 °F54 %29.92 in6.2 miWest (260°)10.4 mphPartly Cloudy
3:00 PM84.2 °F64.4 °F51 %29.92 in6.2 miWNW (300°)5.8 mphPartly Cloudy
3:30 PM82.4 °F64.4 °F54 %29.92 in6.2 miNW (310°)10.4 mphPartly Cloudy
4:00 PM84.2 °F62.6 °F48 %29.92 in6.2 miNNE (20°)5.8 mphPartly Cloudy
4:30 PM82.4 °F60.8 °F48 %29.92 in6.2 miVariable2.3 mphPartly Cloudy
5:00 PM80.6 °F62.6 °F54 %29.95 in6.2 miVariable3.5 mphPartly Cloudy
5:30 PM80.6 °F62.6 °F54 %29.95 in6.2 miVariable5.8 mphPartly Cloudy
6:00 PM78.8 °F64.4 °F61 %29.95 in6.2 miVariable3.5 mphPartly Cloudy
6:30 PM78.8 °F62.6 °F57 %29.95 in6.2 miNE (50°)3.5 mphPartly Cloudy
7:00 PM77.0 °F64.4 °F65 %29.98 in6.2 miEast (100°)3.5 mphPartly Cloudy
7:30 PM77.0 °F62.6 °F61 %29.98 in6.2 miENE (60°)6.9 mphPartly Cloudy
8:00 PM75.0 °F64.0 °F60 %29.98 in12.0 miEast (100°)8.9 mphScattered Clouds
8:00 PM75.2 °F64.4 °F69 %29.98 in6.2 miEast (100°)4.6 mphPartly Cloudy
8:30 PM73.4 °F64.4 °F73 %29.98 in6.2 miEast (100°)2.3 mphPartly Cloudy
9:00 PM73.4 °F64.4 °F73 %29.98 in6.2 miEast (100°)4.6 mphPartly Cloudy
9:30 PM73.4 °F64.4 °F73 %29.98 in6.2 miSouth (170°)2.3 mphPartly Cloudy
10:00 PM73.4 °F62.6 °F69 %30.01 in6.2 miVariable2.3 mphPartly Cloudy
10:30 PM71.6 °F62.6 °F73 %30.01 in6.2 miESE (120°)2.3 mphPartly Cloudy
11:00 PM72.0 °F62.0 °F64 %30.03 in12.0 miSE (140°)4.6 mphScattered Clouds
11:00 PM71.6 °F62.6 °F73 %30.01 in6.2 miSE (140°)4.6 mphPartly Cloudy
11:30 PM71.6 °F62.6 °F73 %30.01 in6.2 miVariable2.3 mphPartly Cloudy
Hourly data recorded from NTAA, located miles away from Papeete, French Polynesia







STORIES FROM OUR PARTNERS